{"data":{"norad_id":56412,"epoch":"2026-05-24T23:21:05.141088Z","epoch_age_seconds":77548,"freshness":"FRESH","line1":"1 56412U 23061AQ  26144.97297617  .00000426  00000+0  25030-4 0  9990","line2":"2 56412  43.0046 116.0117 0001427 284.9235  75.1458 15.27573888168549","mean_motion":15.27573888,"eccentricity":0.0001427,"inclination_deg":43.0046,"raan_deg":116.0117,"arg_perigee_deg":284.9235,"mean_anomaly_deg":75.1458,"bstar":2.503e-5,"rev_number":16854,"period_min":94.267125885828,"perigee_km":482.08830375991,"apogee_km":484.046491495,"semimajor_km":6861.2043976275,"source":"CELESTRAK","updated_at":"2026-05-25T13:38:18.061028Z"}}